FENGYUN 1C DEB

Satellite information

Favourite Embed

Satellite Type and Status

DEBRISIN ORBIT

Key statistics

Satellite FENGYUN 1C DEB at a glance.

Uptime

9661

Days in orbit

Revolutions

≈ 14.2

Per day

Orbit

SSO

Sun Synchronous Orbit

Inclination

99.1

Latest

Satellite identification and parameters

Extended collection of information and parameters for FENGYUN 1C DEB.

Object identification

Identified? True

Debris? True

Object name: FENGYUN 1C DEB

International designator: 1999-025CBZ

Object number (NORAD): 31667

Object ID (CCSDS): 31667

Country: PEOPLES REPUBLIC OF CHINA (PRC)

Current information (Y/N): Y

RCS size: SMALL

Orbital parameters

Period: 101.167 minutes

Inclination: 99.0922 deg

SMA: 7192.068 km

Apoapsis: 849.76 km

Periapsis: 778.105 km

RAAN: 130.1632 deg

Eccentricy: 0.00498155

Argument of periapsis: 278.1918 deg

Mean anomaly: 81.3611 deg

Mean motion: 14.23384105 rev/day

Mean motion (dot): 0.00000723 rev/day2

B* drag term: 0.00033541852 1/REarth

Two-line elements (TLE)

Creation date: Oct. 7, 2025, 5:38 p.m.

Reference frame: TEME

Reference center: EARTH

Epoch: Oct. 7, 2025, 8:11 a.m. UTC

TLE line 0: 0 FENGYUN 1C DEB

TLE line 1: 1 31667U 99025CBZ 25280.34106007 .00000723 00000-0 33542-3 0 9998

TLE line 2: 2 31667 99.0922 130.1632 0049815 278.1918 81.3611 14.23384105550488

Live tracking on map

Real-time ground track for satellite FENGYUN 1C DEB.

In-orbit conjunctions

A list of the most updated potential collisions computed for object FENGYUN 1C DEB.

Target Orbit TCA Probability of collision Miss distance Type
TIROS 10 SSO 2025-02-16 03:12:02 0.000195359 443.0 (m) PAYLOAD
ARIANE 1 R/B SSO 2025-01-08 06:11:20 0.0001021799 155.0 (m) ROCKET BODY
FENGYUN 1C DEB SSO 2024-11-15 17:23:12 0.0001412812 944.0 (m) DEBRIS
SL-16 DEB LEO 2024-11-12 12:02:34 0.0001893182 840.0 (m) DEBRIS
SCOUT G-1 R/B LEO 2024-11-02 23:09:28 0.0001386978 296.0 (m) ROCKET BODY

Associated space launch

Chinese polar orbiting meteorological satellite

FENGYUN 1C DEB was lifted into orbit during the mission ‘Long March 4B | Feng Yun 1C’, on board a Long March 4B space rocket.

The launch took place on May 10, 1999, 1:33 a.m. from Launch Complex 7.

For more information about the launch, click the button.

Launch to space Long March 4B | Feng Yun 1C
Long March 4B | Feng Yun 1C

Agency: N/A

Status: Launch Successful

Launch date: May 10, 1999, 1:33 a.m. UTC

Rocket: Long March 4B

Launch pad: Launch Complex 7

Location: Taiyuan Satellite Launch Center, People's Republic of China

...

Latest news about this satellite

There are no fresh news available about this satellite. Check back as we update our databases every day.


Newsletter sign-up

Weekly statistics, charts and insights to help you stay on top of the space industry.